Theta_e
300 300 300 300 300 300 299 299 299 299 299 300 300 300 301 301 301 293 289 292 290 283 285 289 291 288 286 284 280 283 282 283 281 279 278 278 277 279 279 279 278 277 276 275 274 272 268 286 284 279 283 287 289 289
300 300 300 300 300 299 299 299 299 299 299 299 299 300 301 302 301 294 288 293 294 286 285 291 291 291 290 289 285 283 282 282 281 279 279 278 278 279 278 274 283 275 279 276 278 276 283 286 285 288 289 287 289 288
300 300 300 300 300 300 299 299 299 299 299 299 299 300 301 302 301 295 289 290 290 284 284 285 285 289 292 290 290 282 285 288 285 286 280 279 277 279 276 277 279 282 285 279 280 281 283 285 286 288 290 290 291 290
300 299 300 300 300 300 299 299 300 299 299 299 299 300 301 301 300 296 289 290 288 285 279 282 293 289 292 291 290 289 288 288 287 285 277 275 276 281 276 278 278 280 282 280 279 281 283 285 286 287 287 289 288 287
299 299 299 300 300 300 299 299 299 299 299 299 299 299 299 300 298 293 290 290 290 284 277 279 287 290 291 291 289 288 287 284 281 278 276 275 279 278 275 276 276 281 279 276 276 282 282 282 286 288 286 285 286 286
298 299 299 299 300 299 299 299 299 299 299 299 299 299 299 298 296 287 281 290 293 288 277 272 285 286 289 290 289 287 286 284 281 277 275 279 283 279 272 273 281 282 283 283 282 284 284 285 286 287 286 286 287 287
297 298 299 299 299 299 299 299 299 299 299 299 299 299 298 297 290 284 284 289 294 288 277 272 275 286 289 287 282 283 284 278 280 274 274 277 278 280 272 274 281 283 284 285 286 285 282 284 283 286 286 286 288 288
297 298 298 298 298 298 298 299 299 299 299 299 299 299 298 296 293 287 291 294 291 281 279 273 276 279 287 275 278 277 277 275 276 276 277 276 279 277 273 280 282 284 285 285 285 286 286 287 286 285 286 286 286 285
297 297 297 297 297 297 298 299 299 299 299 298 297 295 289 286 281 289 295 291 287 282 275 277 273 270 282 277 280 278 278 273 277 279 277 277 276 275 280 281 282 283 282 283 285 286 286 285 285 286 287 287 287 288
296 296 296 296 295 297 298 299 299 299 298 296 291 285 277 286 296 292 285 279 279 282 279 277 278 274 281 284 277 277 277 279 273 277 279 278 277 282 284 285 285 285 285 285 282 281 284 286 286 288 288 290 290 290
296 296 295 297 297 297 298 298 299 297 294 289 283 283 291 296 286 283 279 279 277 277 277 278 278 278 283 278 278 282 279 278 275 275 277 277 277 282 287 288 288 288 288 287 287 288 290 289 288 288 289 291 293 292
296 296 297 297 297 298 297 297 294 292 290 289 289 292 290 286 283 279 276 278 277 276 278 278 278 279 282 285 278 283 279 277 275 282 279 275 280 287 288 288 286 287 287 289 289 287 290 290 290 290 290 289 285 284
295 295 295 295 294 295 294 294 296 297 293 290 288 283 282 281 276 272 267 275 271 279 283 281 279 283 285 286 280 280 276 275 281 274 276 280 287 288 286 286 285 285 285 286 287 288 288 288 288 287 286 285 282 279
296 296 295 296 296 295 295 295 294 292 287 279 280 275 275 272 273 275 275 273 279 278 279 279 279 280 280 280 280 275 278 279 271 272 276 283 284 284 284 284 284 283 283 283 284 284 284 284 284 285 285 285 281 279
296 296 295 295 295 295 294 294 293 287 286 282 281 269 273 278 275 276 278 280 283 284 279 278 278 280 279 276 277 276 272 270 274 272 282 284 283 285 283 283 283 282 281 282 283 283 283 283 283 283 284 284 284 283
295 294 291 295 295 295 294 292 289 286 286 284 279 275 276 275 272 278 282 279 283 283 277 280 279 275 278 279 276 273 275 271 275 283 284 285 284 283 283 283 282 282 282 282 283 282 282 282 282 282 283 283 283 282
294 289 294 295 294 295 294 287 286 284 284 280 275 280 276 278 278 281 284 282 285 279 273 279 275 277 279 278 277 279 272 278 281 277 277 283 283 285 283 282 281 282 282 282 282 282 281 282 282 282 281 281 282 281
291 291 295 294 292 291 288 288 285 282 280 280 275 273 280 277 277 278 280 284 286 284 282 280 280 278 275 277 278 282 283 283 281 277 277 281 286 285 285 283 283 283 282 282 282 282 282 282 283 282 282 281 281 281
291 290 295 294 291 287 282 283 284 279 278 278 278 280 280 280 281 282 281 284 288 290 283 280 278 276 275 281 281 282 284 283 279 278 277 282 286 285 285 284 284 284 283 283 283 282 283 285 281 280 280 281 280 280
293 293 292 293 292 285 278 279 285 280 278 279 280 279 280 279 281 279 281 284 287 284 282 279 278 278 278 282 283 282 286 284 283 283 283 280 282 285 284 284 284 284 283 284 284 283 283 283 283 283 282 282 279 280
291 291 293 291 287 286 283 282 279 279 281 279 280 281 278 279 279 280 281 283 280 279 278 279 276 276 282 282 283 282 283 284 283 283 285 282 284 284 284 284 285 284 283 282 282 282 282 282 282 283 282 282 282 282
290 292 289 289 285 283 281 282 283 285 281 280 280 281 278 273 274 278 283 280 281 282 280 280 281 282 284 285 286 288 286 286 286 282 282 283 283 282 282 283 283 282 282 283 283 282 282 282 282 282 281 281 281 281
291 291 286 285 281 279 277 283 280 282 278 279 280 279 278 277 282 285 280 281 281 283 283 284 286 287 285 287 287 287 287 286 284 285 285 285 285 285 284 283 284 282 282 283 284 283 283 282 282 282 281 281 280 280
290 284 281 280 280 273 279 276 281 280 280 279 278 276 277 275 280 278 277 279 280 280 282 284 283 281 282 285 283 283 285 284 283 281 283 284 283 284 284 283 283 283 284 285 284 283 283 281 282 282 281 281 280 279
278 277 277 272 280 273 273 274 276 278 271 275 275 271 274 278 272 272 275 277 278 280 281 278 280 280 278 279 282 285 285 284 283 281 281 284 281 281 283 285 284 283 281 283 283 284 282 279 281 281 281 281 279 279
273 274 272 273 273 273 275 269 270 272 274 272 273 277 276 271 268 269 277 276 283 281 270 273 279 281 281 282 282 282 282 282 282 279 281 283 282 278 279 280 280 282 280 281 285 285 283 281 281 279 279 280 280 279
269 269 275 278 275 277 276 274 279 275 272 270 272 270 269 265 265 274 278 280 279 278 282 280 282 282 282 281 281 281 281 281 282 282 282 282 283 282 278 279 276 282 282 283 285 285 284 283 281 281 280 280 280 280
273 272 262 268 270 275 272 271 270 269 273 278 276 269 269 268 272 279 282 284 283 281 281 281 281 280 279 279 280 280 278 277 277 279 282 283 284 284 284 283 283 282 283 285 285 285 284 284 284 283 282 281 280 281
268 270 271 269 270 273 274 272 273 276 279 276 268 270 274 278 278 279 281 282 282 281 279 278 278 278 277 280 282 283 282 278 274 270 268 269 273 279 282 282 282 282 283 284 283 284 284 284 284 284 285 283 282 283
267 271 268 267 268 270 272 274 273 275 277 280 279 279 278 278 278 281 280 280 280 279 278 278 280 279 279 279 280 279 280 279 280 278 275 274 279 281 282 282 284 283 283 284 284 283 283 283 284 284 284 284 284 283
269 268 266 269 263 267 269 273 272 273 274 276 279 276 275 276 275 275 275 277 278 278 277 278 279 280 279 278 277 276 274 275 279 280 279 279 280 281 278 280 284 284 285 284 284 284 283 283 283 283 283 283 283 283
257 259 263 261 262 268 270 266 267 266 269 276 277 277 276 275 270 270 272 272 272 271 273 274 275 275 277 274 274 272 273 278 278 279 279 280 280 281 281 281 282 282 283 283 280 280 282 283 282 282 282 281 282 282
256 258 262 256 259 263 265 266 267 269 272 271 273 276 274 272 268 269 271 272 269 268 268 270 275 274 274 273 272 277 278 278 279 280 280 280 280 280 281 281 281 281 281 281 281 281 280 280 281 281 281 280 279 278
Wind_Speed
12 13 14 15 16 16 17 17 18 18 18 18 19 20 19 16 13 6 1 4 5 5 5 7 4 4 5 4 5 7 5 4 4 4 4 5 4 4 3 4 7 8 8 5 3 3 10 6 3 10 8 4 6 5
9 10 11 13 14 14 14 14 14 15 17 17 18 20 20 16 13 7 5 4 4 7 3 2 6 2 4 4 8 3 5 4 5 4 1 3 1 2 5 4 2 4 7 6 10 9 6 4 5 1 5 6 5 3
7 8 10 11 12 14 15 14 13 13 15 17 18 19 20 20 16 8 3 4 5 5 4 4 5 4 8 7 3 6 2 4 3 3 4 3 2 2 3 4 2 2 3 4 2 3 5 5 1 4 5 5 4 3
5 7 9 10 11 12 13 13 13 13 13 14 15 16 18 17 18 12 5 4 5 4 5 3 2 5 3 9 9 7 7 5 5 4 3 3 2 2 3 2 3 5 3 1 4 4 5 5 6 4 3 4 5 2
6 9 10 10 10 11 12 12 11 12 12 14 14 14 15 14 12 9 5 4 2 6 5 2 4 4 6 7 10 9 7 5 3 3 3 2 0 3 2 2 6 5 6 5 10 6 4 6 3 2 3 4 6 7
4 9 10 11 11 12 12 12 11 11 10 11 12 13 14 12 6 4 4 4 5 2 6 3 4 1 3 8 8 7 5 4 3 4 3 2 3 4 3 7 12 10 9 7 11 6 8 12 10 12 12 9 8 7
5 8 12 13 12 11 12 11 11 10 10 10 12 14 15 16 7 6 3 3 5 4 5 3 3 3 6 5 4 4 4 1 4 2 1 3 2 4 3 13 23 11 8 11 12 6 8 7 7 6 6 7 8 7
8 13 13 7 11 11 8 11 11 10 10 11 12 13 12 12 7 6 6 10 5 5 4 3 2 5 4 2 3 2 3 4 3 3 1 3 1 2 6 14 9 10 15 15 15 14 16 14 11 10 6 4 5 7
12 12 11 11 9 14 9 13 14 13 15 16 14 10 6 6 4 2 5 11 4 5 3 2 4 3 3 2 2 4 3 1 1 3 4 4 3 7 13 11 10 10 9 13 12 13 14 12 13 5 4 4 7 7
12 9 7 13 11 11 12 15 15 17 18 14 6 4 4 3 9 2 7 5 5 4 3 1 1 2 4 2 1 3 1 3 1 5 2 3 6 15 12 13 13 9 9 10 5 7 7 6 3 10 14 12 13 10
12 8 10 9 15 14 19 18 18 18 10 3 2 3 2 4 3 3 2 1 1 1 2 3 4 3 2 4 3 2 3 2 2 4 3 3 5 4 5 7 5 6 8 12 11 8 7 6 7 13 10 9 7 5
15 13 20 18 16 17 20 25 19 4 2 5 6 5 2 1 1 1 2 1 2 3 3 4 5 4 1 3 3 3 2 2 4 3 3 3 4 5 7 6 8 10 12 3 3 7 8 11 9 8 5 5 4 6
19 19 18 21 21 23 22 15 7 10 4 3 3 3 2 1 2 4 3 2 1 3 3 2 2 3 2 2 1 3 3 4 2 1 4 3 1 2 4 5 8 10 11 11 10 6 5 3 4 4 8 8 9 9
18 16 15 15 17 18 13 10 10 6 5 4 3 4 3 2 3 4 3 4 4 3 3 3 2 3 2 2 2 2 4 2 2 2 3 0 1 2 5 6 7 8 8 8 7 7 7 6 8 8 7 8 10 10
16 14 14 13 13 14 10 8 8 4 2 2 2 3 4 3 0 2 2 2 2 2 3 3 3 3 1 1 1 1 3 3 4 3 1 2 1 3 3 4 5 6 6 6 5 5 5 6 7 8 6 6 7 9
15 11 3 12 12 13 10 5 4 2 1 1 1 2 2 3 3 2 1 1 0 2 2 3 2 2 4 3 3 5 3 5 4 2 2 2 2 2 4 3 4 5 6 5 4 4 4 5 5 5 7 7 7 7
10 2 12 11 11 12 6 3 1 1 1 2 3 1 2 0 2 2 1 2 1 4 2 2 3 6 1 3 4 4 5 3 3 2 2 2 1 3 4 4 2 3 4 4 2 3 3 4 5 6 7 5 6 6
3 1 12 13 7 3 1 1 1 1 3 3 2 4 3 3 2 1 3 2 2 2 1 2 2 1 2 2 1 1 2 3 2 2 3 2 1 2 4 5 3 2 3 3 3 2 2 3 4 4 5 6 6 5
4 5 10 11 4 1 2 2 3 2 4 3 2 2 3 2 3 2 2 1 3 2 2 1 1 2 2 2 2 1 1 2 3 3 2 0 1 2 2 3 3 3 4 2 3 3 3 3 4 3 4 5 5 3
6 2 3 5 5 2 3 3 1 1 3 3 1 1 3 3 3 2 2 2 2 1 1 2 4 3 4 3 4 3 2 1 1 1 0 1 1 3 3 3 2 2 2 2 1 2 2 2 3 4 4 5 5 5
4 3 5 4 1 1 2 2 3 4 3 2 2 3 2 1 1 2 2 3 2 3 3 3 3 3 4 4 3 2 1 3 2 3 3 2 3 3 1 1 2 2 2 1 2 2 3 3 2 3 3 4 4 4
1 5 2 2 1 1 2 3 2 2 2 3 1 2 1 0 2 3 3 2 3 4 4 4 3 4 3 1 2 2 3 2 2 2 3 4 2 2 2 3 3 2 3 3 3 3 3 2 3 3 3 3 4 4
8 2 1 3 2 1 6 1 2 3 2 3 1 1 2 1 2 3 2 4 4 4 3 3 2 2 4 3 2 2 3 3 2 3 2 2 3 4 2 2 3 3 2 2 2 3 3 3 4 4 3 4 4 3
4 1 1 3 4 4 2 2 2 2 2 1 1 2 2 3 1 2 2 3 3 2 2 3 3 3 3 3 1 1 1 2 1 1 1 2 2 2 2 2 1 2 2 2 3 3 3 3 5 4 4 5 5 5
1 2 1 3 2 2 1 2 2 1 2 3 1 3 3 2 2 1 3 3 1 1 0 1 3 2 4 1 3 4 6 2 2 2 3 2 1 3 2 1 1 3 0 2 3 4 3 4 4 5 6 6 6 6
4 3 4 3 3 3 4 2 3 4 2 1 4 3 2 3 3 4 3 4 5 3 3 3 5 6 5 3 4 4 4 4 2 3 1 3 2 3 2 2 2 3 2 3 3 4 5 5 6 7 6 7 9 7
4 5 4 3 4 5 3 2 1 2 2 3 3 0 3 2 5 3 3 2 2 1 3 3 5 6 7 4 2 1 1 2 2 2 2 2 3 3 2 2 1 2 3 1 2 3 4 5 6 7 7 6 7 8
3 5 5 7 4 3 3 2 1 3 3 2 2 1 5 6 2 3 3 3 4 5 7 6 5 4 4 3 2 1 2 3 3 3 4 5 4 4 4 3 2 5 4 3 1 2 2 3 4 7 8 8 8 7
4 5 7 3 4 4 2 3 4 3 6 1 3 1 1 3 3 3 2 4 3 4 7 6 4 3 3 3 5 5 4 4 5 6 5 2 3 3 2 2 3 3 2 3 5 4 4 4 4 4 7 7 7 7
3 4 4 4 3 2 2 2 4 6 6 6 2 4 2 3 6 7 7 5 4 6 5 4 3 3 3 3 4 7 6 5 5 4 2 2 4 4 3 3 3 3 2 3 4 4 4 3 3 3 3 4 5 6
3 2 3 2 4 4 5 6 4 4 4 3 2 5 5 5 3 8 10 7 5 7 7 6 5 4 3 5 4 3 3 4 4 5 3 2 3 4 4 4 5 4 4 4 4 4 4 3 3 4 5 6 6 6
3 2 0 4 5 6 4 3 3 3 3 3 2 4 4 3 4 4 8 8 8 9 9 8 5 5 5 3 3 2 1 2 3 3 5 3 3 4 5 4 4 4 5 5 3 3 5 6 4 4 3 4 5 5
3 2 1 3 5 7 5 4 4 4 3 3 3 3 3 4 5 3 3 7 6 6 6 7 5 2 4 5 5 5 6 4 6 7 8 7 7 6 4 3 3 4 4 4 4 4 4 6 6 6 5 6 6 6
Wind_Direction
85 81 82 83 82 79 72 73 78 75 69 61 60 56 54 47 44 61 6 4 102 81 10 39 98 116 116 116 134 179 74 10 63 112 155 186 183 218 165 210 172 165 166 190 93 163 263 192 212 168 204 202 182 193
98 98 97 100 97 89 81 76 74 72 72 66 57 54 47 43 54 63 38 357 48 77 127 17 94 47 90 149 126 33 131 139 165 105 137 105 179 149 168 215 173 199 179 180 181 209 212 208 179 166 175 199 194 172
126 121 116 112 112 111 109 102 89 67 62 61 58 47 51 60 54 68 76 350 54 78 17 49 48 4 50 56 85 115 61 139 146 150 153 165 145 101 168 233 182 233 156 188 95 253 212 225 232 184 200 181 154 206
152 144 131 126 122 118 112 110 107 96 88 80 68 54 50 55 57 57 62 327 72 89 98 330 11 65 89 70 67 74 114 57 88 76 98 115 140 146 206 223 187 207 57 188 267 266 278 252 208 193 172 158 167 201
162 152 142 136 131 129 126 121 116 106 100 97 91 81 73 67 72 69 57 15 51 119 149 185 320 27 110 95 84 77 84 76 62 55 73 206 317 63 298 53 235 182 183 190 248 201 212 235 243 193 224 250 237 218
176 163 153 145 139 137 137 132 124 117 107 98 88 75 56 41 73 78 59 340 349 94 86 70 286 257 91 102 102 100 103 92 91 131 190 232 237 127 192 239 250 226 217 202 250 195 233 256 251 255 259 255 255 252
170 168 157 146 134 136 144 139 131 125 110 93 81 70 52 47 52 73 117 236 6 61 76 39 351 306 127 86 35 61 46 113 109 124 126 178 228 154 222 258 262 252 232 238 240 237 263 247 248 223 221 239 231 213
162 130 118 133 155 142 133 149 142 133 115 94 84 77 62 47 59 33 5 16 42 78 67 81 314 31 30 34 54 17 62 31 0 180 43 176 228 175 253 252 281 246 243 244 239 237 252 261 262 261 221 219 232 240
141 124 132 152 146 156 191 157 150 138 115 101 84 51 42 33 42 61 81 51 39 97 95 70 124 223 354 85 94 22 106 66 227 213 227 118 212 227 239 249 241 235 216 238 238 240 247 243 244 222 231 260 240 221
110 118 124 149 145 172 161 152 149 138 122 96 48 42 25 360 120 76 13 25 20 17 42 162 36 178 103 101 100 95 345 215 221 229 113 204 250 246 259 254 250 239 220 225 221 254 235 189 264 313 306 306 265 240
110 103 132 146 152 156 133 126 134 124 61 57 90 68 23 135 42 48 80 42 36 325 185 222 190 132 262 120 150 197 164 197 241 254 151 233 260 242 314 311 342 304 260 231 211 221 184 207 211 263 259 246 242 212
96 83 115 98 111 141 125 117 110 76 189 155 116 100 101 154 99 296 175 174 187 234 181 171 192 179 181 114 104 174 205 147 249 143 213 248 268 20 14 10 11 6 358 43 187 219 202 236 235 237 218 177 124 104
114 109 107 111 102 107 118 127 93 116 92 66 70 84 118 100 195 147 215 259 263 188 192 166 83 110 57 104 152 162 208 237 89 156 225 234 35 6 8 6 28 21 30 42 48 50 36 43 57 93 109 111 106 92
128 129 125 118 127 140 121 79 62 54 62 81 134 134 169 203 245 197 192 195 240 125 104 106 89 135 176 100 170 152 244 116 292 247 242 91 342 45 46 40 46 27 25 38 33 32 33 49 70 76 90 107 113 115
123 123 121 120 121 119 108 85 53 55 76 105 133 196 206 227 297 230 252 54 337 111 78 44 31 90 78 110 195 125 11 260 223 229 296 254 237 111 76 34 43 44 35 36 23 37 48 54 73 83 86 97 108 114
122 111 98 140 136 131 121 81 38 65 57 278 223 15 300 53 335 355 352 293 78 96 48 60 125 91 199 184 163 210 215 219 236 179 197 168 165 131 121 75 46 45 42 41 51 52 63 68 79 84 88 99 109 118
66 7 162 149 145 141 136 55 70 77 285 280 285 179 149 245 206 228 259 239 175 84 161 136 168 217 140 205 215 181 207 220 217 227 195 158 207 154 129 107 71 57 59 61 39 62 75 92 92 96 100 98 99 94
8 151 148 134 114 120 87 65 350 274 252 229 149 240 203 192 166 232 251 205 151 148 146 219 151 272 231 295 55 8 354 322 295 179 162 154 135 132 151 144 158 88 68 62 87 96 93 107 111 113 119 120 115 130
85 92 140 153 102 129 135 223 156 245 246 227 224 181 170 202 231 191 167 161 177 147 129 78 165 223 225 179 208 263 188 234 228 212 162 136 174 186 163 146 188 149 141 180 166 155 185 192 160 156 147 150 141 137
138 72 22 115 74 27 14 306 40 241 275 245 82 165 173 195 201 159 159 138 109 121 174 208 214 209 182 211 204 207 218 213 108 62 84 269 217 153 183 201 207 186 187 246 222 181 139 115 149 161 160 151 150 160
127 106 120 78 72 21 271 263 239 223 274 261 252 132 228 29 141 147 161 151 108 200 233 226 218 243 206 183 173 194 269 128 168 181 211 173 192 174 198 251 247 154 166 179 154 151 160 178 181 164 161 159 156 161
110 165 94 42 111 251 271 238 261 306 273 254 306 167 168 209 227 200 141 111 222 223 198 184 197 174 184 206 122 178 198 173 141 110 73 111 109 157 232 181 135 181 200 202 181 187 203 181 158 140 127 135 134 145
192 317 116 133 189 279 259 141 228 198 212 258 94 206 267 241 198 139 149 207 230 228 199 188 195 141 139 137 124 158 172 130 129 129 146 199 191 200 192 202 177 162 192 231 192 186 198 175 167 150 142 149 145 150
357 69 291 190 193 250 6 298 234 266 326 259 215 266 249 223 131 78 221 227 255 312 63 118 120 82 48 93 154 225 73 100 77 19 322 144 184 245 186 170 206 229 194 201 178 171 168 174 164 160 162 171 169 171
112 239 125 277 231 49 316 289 272 238 234 227 37 308 273 89 105 246 232 258 63 94 45 34 92 98 140 124 65 62 20 55 109 102 341 14 88 46 62 298 270 277 257 143 174 191 197 165 173 177 178 183 179 178
189 224 146 238 266 173 217 208 218 220 193 208 238 257 44 83 91 246 240 184 186 194 221 158 129 97 67 67 100 58 5 347 73 93 351 18 44 144 180 201 274 282 254 198 172 204 192 181 184 183 190 193 184 179
47 354 346 22 306 291 298 315 296 109 188 215 256 75 85 147 241 265 319 337 142 114 105 91 99 108 120 106 83 52 332 25 104 219 274 22 46 44 110 140 178 310 313 240 238 211 198 201 203 201 198 191 193 193
352 36 348 314 305 270 259 338 167 221 243 251 85 181 185 199 217 340 354 4 101 106 88 79 82 99 108 112 97 59 344 339 355 63 92 65 53 55 33 18 359 0 347 350 281 202 220 237 231 220 208 201 197 194
343 333 328 309 286 268 25 22 351 343 353 287 146 279 95 58 337 311 348 33 0 112 95 93 68 63 58 60 55 54 32 26 55 53 58 0 4 358 14 341 315 307 310 324 312 277 249 242 246 260 231 209 204 194
301 359 304 296 309 321 138 255 297 282 276 272 226 102 73 54 9 19 30 32 35 67 75 68 60 68 67 77 95 70 41 37 44 39 21 11 353 317 308 319 324 316 310 312 299 290 277 258 254 242 234 225 199 198
251 286 286 298 262 270 266 301 281 256 224 229 244 127 144 138 84 32 15 359 18 40 46 40 43 33 45 62 54 71 46 341 15 13 359 316 330 334 328 327 326 318 312 291 299 294 280 276 254 258 237 230 227 214
338 221 344 296 283 280 311 354 279 282 284 207 224 114 132 103 90 44 1 3 20 27 13 12 18 50 54 49 47 58 97 336 344 332 342 336 340 323 315 311 311 318 322 321 300 303 320 306 269 255 253 246 244 237
316 295 281 346 332 337 309 0 292 286 257 234 212 99 70 86 84 93 46 23 21 3 345 336 335 355 49 52 40 21 20 9 3 8 360 348 330 316 302 283 272 277 294 301 308 302 314 328 333 313 272 247 246 246